Location: Donald C. Martin Observatory
(38.3885°N, 82.3916°W)
Time: 15:31:45
(UTC-05:00)

Daily predictions for brighter satellites

Satellite Brightness Start Highest point End
(mag) Time Altitude Azimuth Time Altitude Azimuth Time Altitude Azimuth
CZ-4C R/B 3.9 17:32:59 10° N 17:38:27 23° NE 17:44:21 10° E
Meteor 1-28 Rocket 3.8 17:36:05 10° NNE 17:39:30 34° E 17:42:55 10° SSE
Meteor 1-26 Rocket 4.2 17:35:46 10° S 17:41:21 89° ESE 17:46:54 10° N
Ariane Rocket 3.0 17:37:51 10° SSE 17:42:51 61° ENE 17:47:51 10° N
Tiangong 1 3.1 17:42:01 10° S 17:43:19 13° SE 17:44:37 10° ESE
Cosmos 1606 3.3 17:41:50 10° SSE 17:45:18 35° E 17:48:45 10° NNE
Cosmos 841 Rocket 3.5 17:41:58 10° NNW 17:47:14 67° ENE 17:52:27 10° SSE
Cosmos 2346 Rocket 4.5 17:42:31 10° N 17:48:42 81° E 17:54:54 10° S
Landsat 4 4.4 17:48:58 10° NNE 17:52:29 35° E 17:55:59 10° SSE
CSL-04 Rocket 3.7 17:50:19 10° SSE 17:55:36 89° WSW 18:01:00 10° NNW
Cosmos 1703 Rocket 3.6 17:51:53 10° S 17:56:16 61° E 18:00:40 10° NNE
Cosmos 1484 Rocket 2.7 17:53:45 10° SSE 17:57:36 80° ENE 18:01:33 10° N
Cosmos 2221 Rocket 4.0 17:56:12 10° SSE 18:00:18 40° E 18:04:26 10° NNE
EO 1 Del DPAF 4.2 17:57:56 10° NE 18:01:13 27° E 18:04:30 10° SSE
Cosmos 1486 Rocket 4.4 17:57:21 10° SSW 18:02:31 65° WNW 18:07:45 10° NNE
Cosmos 2082 Rocket 2.4 17:59:41 10° NNW 18:05:12 49° ENE 18:10:39 10° SE
CENTAUR R/B 4.3 18:01:43 10° W 18:06:45 25° NW 18:12:19 10° NNE
ERS-2 2.7 18:03:40 10° SE 18:07:00 33° ENE 18:10:20 10° N
OAO 3 Rocket 4.3 18:02:33 10° SW 18:07:00 36° SSE 18:10:56 13° E
CZ-4 R/B 1.1 18:05:16 10° SSE 18:09:06 75° ENE 18:12:56 10° N
COSMOS 2455 4.5 18:04:56 10° WSW 18:10:08 30° NW 18:15:23 10° N
Meteor 2-6 Rocket 4.2 18:07:13 10° S 18:12:30 56° E 18:17:57 10° NNE
Meteor 1-20 Rocket 4.2 18:11:22 10° N 18:16:55 83° W 18:22:23 10° S
Cosmos 1602 4.4 18:13:33 10° NNE 18:17:01 31° ENE 18:20:29 10° SE
Okean 2 Rocket 3.5 18:13:31 10° N 18:17:50 42° E 18:22:06 10° SSE
Cosmos 1633 2.5 18:16:45 10° N 18:20:26 85° E 18:24:05 10° S
Cosmos 1354 Rocket 4.0 18:16:14 10° SSW 18:21:31 87° WNW 18:26:48 10° NNE
CZ-4 R/B 4.4 18:17:36 10° SSE 18:21:44 67° ENE 18:25:52 10° N
Cosmos 405 Rocket 2.8 18:18:19 10° S 18:21:58 48° E 18:25:13 12° NNE
Cosmos 1908 Rocket 4.2 18:18:42 10° NNW 18:22:57 57° W 18:27:11 10° S
SKYMED 2 3.5 18:21:48 10° NNE 18:26:07 62° E 18:30:24 10° S
Cosmos 1782 3.3 18:23:41 10° SSW 18:27:40 64° W 18:31:40 10° N
Cosmos 1464 Rocket 3.9 18:23:02 10° S 18:29:06 78° E 18:35:17 10° N
CZ-2C R/B 4.1 18:25:13 10° N 18:29:40 63° WNW 18:34:11 10° SSW
BREEZE-M R/B 2.5 18:27:52 10° NW 18:30:41 85° SW 18:35:39 10° SE
SPOT 3 Rocket 3.6 18:27:10 10° SSE 18:32:12 53° ENE 18:37:16 10° N
BREEZE-M DEB (TANK) 3.6 18:30:35 10° NNW 18:32:12 23° NNE 18:32:12 23° NNE
Cosmos 44 Rocket 3.3 18:31:57 10° NNW 18:36:47 59° ENE 18:41:42 10° SE
FENGYUN 3A 3.8 18:32:23 10° SSE 18:37:36 51° ENE 18:42:50 10° N
Okean 1-7 3.6 18:36:06 10° SSW 18:40:26 60° W 18:44:48 10° N
Cosmos 292 Rocket 3.6 18:36:12 10° NNW 18:40:57 67° ENE 18:45:39 10° SSE
GPS 2-05 Rocket1 3.3 18:38:02 10° WSW 18:41:04 43° S 18:41:40 38° SE
ISS -1.5 18:41:42 10° S 18:42:42 14° SSE 18:42:42 14° SSE
Meteor 1-27 Rocket 3.7 18:42:07 10° S 18:47:59 74° E 18:53:56 10° NNE
Cosmos 44 3.3 18:51:31 10° NNW 18:56:16 82° WSW 19:01:16 10° SSE
Cosmos 1833 Rocket 3.2 18:51:08 10° NNW 18:56:39 60° WSW 19:02:10 10° S
Cosmos 2369 Rocket 3.1 18:53:41 10° SSE 18:57:34 29° ESE 18:57:34 29° ESE
NOAA 12 4.0 18:58:34 10° SSE 19:03:54 88° WSW 19:09:14 10° NNW
Thor Agena Rocket 3.7 19:04:54 48° ESE 19:04:54 48° ESE 19:09:45 10° S
Cosmos 405 3.8 19:05:26 10° NNW 19:08:57 52° W 19:12:25 10° S
ALOS 2.4 19:04:20 10° S 19:08:59 75° WSW 19:13:40 10° NNW
COSMO-SKYMED 1 4.0 19:10:07 10° N 19:14:06 36° WNW 19:18:04 10° SW
USA 234 3.2 19:14:25 37° NE 19:17:16 87° NW 19:23:49 10° SW
Tiangong 1 3.7 19:15:12 10° WSW 19:15:53 16° WSW 19:15:53 16° WSW
Cosmos 968 Rocket 3.8 19:12:49 10° SSW 19:17:56 65° WNW 19:20:41 28° N
Cosmos 1943 Rocket 4.2 19:18:11 10° SSE 19:19:04 14° SSE 19:19:04 14° SSE
CZ-4C R/B 2.8 19:20:35 10° NNW 19:27:57 87° ENE 19:32:49 27° SSE
Meteor 1-11 Rocket 4.4 19:25:26 10° NNW 19:31:06 54° W 19:36:36 10° S
Nadezhda 4 Rocket 4.5 19:34:21 10° NNW 19:40:19 57° W 19:46:16 10° SSW
Cosmos 1634 Rocket 3.8 19:36:13 10° S 19:42:05 81° SSE 19:42:05 81° SSE
OAO 3 Rocket 4.3 19:45:23 10° WSW 19:48:44 40° SW 19:48:44 40° SW
Gblst 52 Del rocket 4.4 19:46:40 10° WSW 19:51:35 67° W 19:51:35 67° W
Cosmos 1092 Rocket 4.4 19:53:26 10° NNW 19:59:27 58° W 20:05:30 10° S
USA 229 DEB 4.1 20:03:13 10° SW 20:09:48 54° NW 20:10:13 54° NW
USA 229 4.1 20:03:18 10° SW 20:09:54 55° NW 20:10:16 54° NW
Cosmos 2369 Rocket 4.3 20:37:22 10° SW 20:39:26 21° WSW 20:39:26 21° WSW
